| time (UTC) | temp C | wind direction | speed KPH | gust KPH | rain 1hr cm | rain 24hr cm | rain mn cm | humidity % | barometer mb |
| 20260502123015 | 18 | 155 | 17.7 | 27.4 | 0.00 | 0.00 | 0.00 | 33 | 1010.5 |
| 20260502121513 | 18 | 166 | 14.5 | 27.4 | 0.00 | 0.00 | 0.00 | 33 | 1010.5 |
| 20260502114509 | 17 | 164 | 11.3 | 20.9 | 0.00 | 0.00 | 0.00 | 37 | 1010.7 |
| 20260502113009 | 18 | 165 | 11.3 | 22.5 | 0.00 | 0.00 | 0.00 | 40 | 1010.8 |
| 20260502111509 | 18 | 153 | 9.7 | 19.3 | 0.00 | 0.00 | 0.00 | 36 | 1010.8 |
| 20260502110010 | 17 | 130 | 11.3 | 17.7 | 0.00 | 0.00 | 0.00 | 34 | 1011.0 |
| 20260502104509 | 17 | 177 | 11.3 | 17.7 | 0.00 | 0.00 | 0.00 | 42 | 1011.1 |
| 20260502103011 | 18 | 139 | 3.2 | 14.5 | 0.00 | 0.00 | 0.00 | 31 | 1011.3 |
| 20260502101529 | 17 | 164 | 6.4 | 17.7 | 0.00 | 0.00 | 0.00 | 29 | 1011.7 |
| 20260502091511 | 16 | 184 | 8.0 | 17.7 | 0.00 | 0.00 | 0.00 | 35 | 1012.3 |
| 20260502071509 | 10 | 355 | 0.0 | 3.2 | 0.00 | 0.00 | 0.00 | 57 | 1013.2 |
| 20260502070012 | 10 | 355 | 0.0 | 1.6 | 0.00 | 0.00 | 0.00 | 60 | 1013.3 |
| 20260502064511 | 9 | 355 | 0.0 | 1.6 | 0.00 | 0.00 | 0.00 | 62 | 1013.5 |
| 20260502063010 | 8 | 355 | 0.0 | 1.6 | 0.00 | 0.00 | 0.00 | 64 | 1013.7 |
| 20260502061510 | 8 | 355 | 0.0 | 1.6 | 0.00 | 0.00 | 0.00 | 63 | 1013.9 |
| 20260502060013 | 8 | 355 | 0.0 | 1.6 | 0.00 | 0.00 | 0.00 | 65 | 1014.0 |
| 20260502054509 | 7 | 355 | 0.0 | 0.0 | 0.00 | 0.00 | 0.00 | 68 | 1014.2 |
| 20260502053010 | 6 | 355 | 0.0 | 1.6 | 0.00 | 0.00 | 0.00 | 72 | 1014.3 |
| 20260502051510 | 5 | 355 | 0.0 | 1.6 | 0.00 | 0.00 | 0.00 | 81 | 1014.3 |
| 20260502050010 | 3 | 355 | 0.0 | 3.2 | 0.00 | 0.00 | 0.00 | 84 | 1014.5 |
| 20260502044512 | 2 | 355 | 1.6 | 8.0 | 0.00 | 0.00 | 0.00 | 85 | 1014.6 |
| 20260502043010 | 2 | 14 | 3.2 | 8.0 | 0.00 | 0.00 | 0.00 | 85 | 1014.8 |
| 20260502041510 | 2 | 13 | 0.0 | 6.4 | 0.00 | 0.00 | 0.00 | 85 | 1015.0 |
| 20260502040010 | 2 | 15 | 1.6 | 6.4 | 0.00 | 0.00 | 0.00 | 85 | 1015.2 |
| 20260502034520 | 2 | 14 | 0.0 | 6.4 | 0.00 | 0.00 | 0.00 | 84 | 1015.3 |
| 20260502033010 | 2 | 14 | 1.6 | 8.0 | 0.00 | 0.00 | 0.00 | 84 | 1015.6 |
| 20260502031510 | 2 | 28 | 1.6 | 8.0 | 0.00 | 0.00 | 0.00 | 83 | 1015.9 |
| 20260502030010 | 2 | 13 | 3.2 | 8.0 | 0.00 | 0.00 | 0.00 | 82 | 1016.1 |
| 20260502024510 | 3 | 10 | 0.0 | 0.0 | 0.00 | 0.00 | 0.00 | 82 | 1016.3 |
| 20260502023010 | 3 | 9 | 0.0 | 3.2 | 0.00 | 0.00 | 0.00 | 82 | 1016.6 |
| 20260502021509 | 3 | 9 | 0.0 | 0.0 | 0.00 | 0.00 | 0.00 | 81 | 1016.9 |
| 20260502020009 | 3 | 9 | 0.0 | 0.0 | 0.00 | 0.00 | 0.00 | 80 | 1017.1 |
| 20260502014509 | 3 | 9 | 0.0 | 0.0 | 0.00 | 0.00 | 0.00 | 80 | 1017.1 |
| 20260502013010 | 3 | 9 | 0.0 | 1.6 | 0.00 | 0.00 | 0.00 | 80 | 1017.2 |
| 20260502011520 | 3 | 13 | 0.0 | 9.7 | 0.00 | 0.00 | 0.00 | 80 | 1017.3 |
| 20260502010013 | 3 | 17 | 0.0 | 6.4 | 0.00 | 0.00 | 0.00 | 79 | 1017.7 |
| 20260502004510 | 4 | 176 | 0.0 | 4.8 | 0.00 | 0.00 | 0.00 | 78 | 1017.9 |
| 20260502003009 | 4 | 178 | 0.0 | 3.2 | 0.00 | 0.00 | 0.00 | 77 | 1018.2 |
| 20260502001512 | 5 | 178 | 0.0 | 3.2 | 0.00 | 0.00 | 0.00 | 76 | 1018.3 |
| 20260502000010 | 5 | 178 | 0.0 | 1.6 | 0.00 | 0.00 | 0.00 | 74 | 1018.6 |
| 20260501234509 | 5 | 178 | 0.0 | 1.6 | 0.00 | 0.00 | 0.00 | 73 | 1018.7 |
| 20260501233018 | 5 | 178 | 0.0 | 3.2 | 0.00 | 0.00 | 0.00 | 72 | 1018.8 |
| 20260501231509 | 6 | 178 | 0.0 | 1.6 | 0.00 | 0.00 | 0.00 | 71 | 1019.0 |
| 20260501230013 | 6 | 178 | 0.0 | 1.6 | 0.00 | 0.00 | 0.00 | 70 | 1019.2 |
| 20260501224509 | 6 | 178 | 0.0 | 3.2 | 0.00 | 0.00 | 0.00 | 69 | 1019.3 |
| 20260501223010 | 7 | 178 | 0.0 | 3.2 | 0.00 | 0.00 | 0.00 | 68 | 1019.3 |
| 20260501221512 | 7 | 178 | 0.0 | 1.6 | 0.00 | 0.00 | 0.00 | 67 | 1019.4 |
| 20260501220014 | 8 | 178 | 0.0 | 0.0 | 0.00 | 0.00 | 0.00 | 65 | 1019.6 |
| 20260501214510 | 8 | 178 | 0.0 | 0.0 | 0.00 | 0.00 | 0.00 | 64 | 1019.7 |
| 20260501213010 | 8 | 178 | 0.0 | 0.0 | 0.00 | 0.00 | 0.00 | 62 | 1019.8 |
| 20260501211510 | 9 | 178 | 0.0 | 3.2 | 0.00 | 0.00 | 0.00 | 60 | 1019.9 |
| 20260501210015 | 10 | 178 | 0.0 | 3.2 | 0.00 | 0.00 | 0.00 | 59 | 1020.0 |
| 20260501204509 | 10 | 178 | 0.0 | 3.2 | 0.00 | 0.00 | 0.00 | 58 | 1020.0 |
| 20260501203010 | 11 | 178 | 0.0 | 4.8 | 0.00 | 0.00 | 0.00 | 55 | 1019.9 |
| 20260501201509 | 11 | 178 | 1.6 | 6.4 | 0.00 | 0.00 | 0.00 | 53 | 1020.0 |
| 20260501200011 | 12 | 178 | 1.6 | 9.7 | 0.00 | 0.00 | 0.00 | 51 | 1020.1 |
| 20260501194514 | 12 | 173 | 3.2 | 11.3 | 0.00 | 0.00 | 0.00 | 47 | 1020.1 |
| 20260501193009 | 13 | 171 | 6.4 | 9.7 | 0.00 | 0.00 | 0.00 | 43 | 1020.4 |
| 20260501191512 | 13 | 171 | 6.4 | 12.9 | 0.00 | 0.00 | 0.00 | 41 | 1020.5 |
| 20260501190012 | 13 | 188 | 4.8 | 11.3 | 0.00 | 0.00 | 0.00 | 39 | 1020.5 |
| 20260501184516 | 14 | 186 | 8.0 | 16.1 | 0.00 | 0.00 | 0.00 | 37 | 1020.6 |
| 20260501183009 | 15 | 186 | 8.0 | 17.7 | 0.00 | 0.00 | 0.00 | 35 | 1020.7 |
| 20260501180012 | 15 | 186 | 8.0 | 19.3 | 0.00 | 0.00 | 0.00 | 34 | 1020.7 |
| 20260501174510 | 15 | 170 | 11.3 | 24.1 | 0.00 | 0.00 | 0.00 | 33 | 1020.7 |
| 20260501173011 | 16 | 204 | 9.7 | 16.1 | 0.00 | 0.00 | 0.00 | 33 | 1020.8 |
| 20260501171511 | 16 | 197 | 6.4 | 22.5 | 0.00 | 0.00 | 0.00 | 32 | 1020.7 |
| 20260501170009 | 16 | 184 | 16.1 | 25.7 | 0.00 | 0.00 | 0.00 | 32 | 1021.0 |
| 20260501164523 | 16 | 191 | 12.9 | 30.6 | 0.00 | 0.00 | 0.00 | 31 | 1021.1 |
| 20260501163021 | 16 | 173 | 16.1 | 25.7 | 0.00 | 0.00 | 0.00 | 30 | 1021.3 |
| 20260501161511 | 16 | 207 | 12.9 | 20.9 | 0.00 | 0.00 | 0.00 | 32 | 1021.4 |
| 20260501160010 | 16 | 207 | 11.3 | 22.5 | 0.00 | 0.00 | 0.00 | 32 | 1021.6 |
| 20260501154510 | 16 | 226 | 12.9 | 27.4 | 0.00 | 0.00 | 0.00 | 33 | 1021.8 |
| 20260501153009 | 17 | 192 | 17.7 | 30.6 | 0.00 | 0.00 | 0.00 | 32 | 1022.2 |
| 20260501151509 | 17 | 234 | 19.3 | 33.8 | 0.00 | 0.00 | 0.00 | 31 | 1022.2 |
| 20260501150012 | 17 | 184 | 20.9 | 40.2 | 0.00 | 0.00 | 0.00 | 31 | 1022.2 |
| 20260501144509 | 18 | 187 | 14.5 | 29.0 | 0.00 | 0.00 | 0.00 | 31 | 1022.5 |
| 20260501143009 | 18 | 205 | 9.7 | 33.8 | 0.00 | 0.00 | 0.00 | 28 | 1022.5 |
| 20260501141509 | 18 | 205 | 17.7 | 35.4 | 0.00 | 0.00 | 0.00 | 27 | 1022.7 |
| 20260501140009 | 18 | 178 | 19.3 | 33.8 | 0.00 | 0.00 | 0.00 | 28 | 1022.9 |
| 20260501134508 | 18 | 236 | 6.4 | 27.4 | 0.00 | 0.00 | 0.00 | 27 | 1023.1 |